Location: Unspecified
(41.1637°N, 24.2901°E)
Time: 18:15:21
(UTC+01:00)

ISS - Pass Details

Date: 20 January 2020
Orbit: 415 x 421 km, 51.6° (Epoch: 18 January)

Event Time Altitude Azimuth Distance (km) Brightness Sun altitude
Rises 18:22:18 0° 231° (SW) 2,353 1.0 -22.0°
Reaches altitude 10° 18:24:23 10° 231° (SW) 1,491 -0.2 -22.4°
Enters shadow 18:26:50 46° 228° (SW) 570 -2.8 -22.9°
